User: anonymous   Login
Location: Unspecified
(0.0000°N, 0.0000°E)
Time: 17:48:11
(UTC+02:00)
Language:

Palapa 6 Rocket - Orbit

View from above orbital plane
View from above orbital plane
View from above satellite
View from above satellite

Ground track
Ground track

The orbit data is extracted from the following two-line orbital elements,

1 20571U 90034B   17233.17093185  .00000811  00000-0  74746-4 0  9993
2 20571  22.7451 153.8599 0508427  22.9753 339.2635 14.11966699401224
Epoch (UTC): 21 August 2017 04:06:08
Eccentricity: 0.0508427
inclination: 22.7451°
perigee height: 485 km
apogee height: 1220 km
right ascension of ascending node: 153.8599°
argument of perigee: 22.9753°
revolutions per day: 14.11966699
mean anomaly at epoch: 339.2635°
orbit number at epoch: 40122

The dashed part of the orbit path shows where the satellite is in the earth's shadow,  

DLR